LSP082 SCCI-SCEL

Flight info

Callsign LSP082
Flight time 2h 43m
Altitude 36000
Route SIRUN4A SIRUN UQ802 EROLO EROLO2D
Aircraft B77W/H-SDE1E2E3FGHIJ2J3J4J5M1RWXY/LB1D1

Departure

Time 2026-04-25 01:14
Airport President Carlos Ibáñez International Airport (SCCI)

Arrival

Time 2026-04-25 03:57
Airport Comodoro Arturo Merino Benítez International Airport (SCEL)
Time Latitude Longitude Altitude Speed Heading
2026-04-25 01:06 -53.00445 -70.84670 165 ft 0 kts 225°
2026-04-25 01:07 -53.00444 -70.84669 165 ft 2 kts 225°
2026-04-25 01:07 -53.00429 -70.84644 167 ft 3 kts 220°
2026-04-25 01:07 -53.00416 -70.84626 167 ft 3 kts 206°
2026-04-25 01:08 -53.00406 -70.84622 165 ft 3 kts 168°
2026-04-25 01:08 -53.00392 -70.84630 166 ft 3 kts 102°
2026-04-25 01:08 -53.00394 -70.84661 165 ft 3 kts 73°
2026-04-25 01:08 -53.00399 -70.84694 165 ft 1 kts 90°
2026-04-25 01:09 -53.00399 -70.84695 165 ft 0 kts 90°
2026-04-25 01:09 -53.00399 -70.84694 165 ft 0 kts 90°
2026-04-25 01:10 -53.00399 -70.84686 165 ft 2 kts 90°
2026-04-25 01:10 -53.00394 -70.84643 165 ft 5 kts 73°
2026-04-25 01:10 -53.00385 -70.84564 165 ft 9 kts 85°
2026-04-25 01:10 -53.00387 -70.84445 165 ft 12 kts 86°
2026-04-25 01:11 -53.00320 -70.84379 165 ft 13 kts
2026-04-25 01:11 -53.00250 -70.84298 165 ft 14 kts 77°
2026-04-25 01:11 -53.00245 -70.84116 165 ft 17 kts 89°
2026-04-25 01:11 -53.00242 -70.83897 165 ft 21 kts 87°
2026-04-25 01:12 -53.00237 -70.83644 168 ft 22 kts 88°
2026-04-25 01:12 -53.00216 -70.83454 168 ft 13 kts 41°
2026-04-25 01:12 -53.00124 -70.83426 167 ft 14 kts 359°
2026-04-25 01:12 -53.00071 -70.83538 166 ft 14 kts 277°
2026-04-25 01:13 -53.00067 -70.83698 166 ft 16 kts 270°
2026-04-25 01:13 -53.00075 -70.84249 171 ft 85 kts 269°
2026-04-25 01:13 -53.00092 -70.85605 166 ft 147 kts 269°
2026-04-25 01:13 -53.00124 -70.87492 451 ft 169 kts 268°
2026-04-25 01:14 -53.00066 -70.89354 1330 ft 163 kts 288°
2026-04-25 01:14 -52.99308 -70.90820 1929 ft 174 kts 314°
2026-04-25 01:14 -52.98363 -70.92257 2244 ft 196 kts 307°
2026-04-25 01:14 -52.97360 -70.94000 2644 ft 217 kts 307°
2026-04-25 01:15 -52.96303 -70.95863 3354 ft 227 kts 306°
2026-04-25 01:15 -52.95200 -70.97828 4013 ft 238 kts 307°
2026-04-25 01:15 -52.94061 -70.99871 4842 ft 243 kts 306°
2026-04-25 01:15 -52.92909 -71.01948 5700 ft 247 kts 306°
2026-04-25 01:16 -52.91737 -71.04066 6565 ft 251 kts 305°
2026-04-25 01:16 -52.90555 -71.06204 7421 ft 253 kts 306°
2026-04-25 01:16 -52.89345 -71.08343 8263 ft 256 kts 307°
2026-04-25 01:16 -52.88089 -71.10475 9108 ft 260 kts 308°
2026-04-25 01:17 -52.86814 -71.12623 9931 ft 263 kts 308°
2026-04-25 01:17 -52.85514 -71.14816 10573 ft 275 kts 308°
2026-04-25 01:17 -52.84114 -71.17191 10800 ft 302 kts 308°
2026-04-25 01:17 -52.82582 -71.19787 11034 ft 329 kts 309°
2026-04-25 01:18 -52.80930 -71.22570 11551 ft 346 kts 309°
2026-04-25 01:18 -52.79214 -71.25447 12415 ft 355 kts 309°
2026-04-25 01:18 -52.77465 -71.28377 13446 ft 361 kts 309°
2026-04-25 01:18 -52.75690 -71.31354 14346 ft 366 kts 309°
2026-04-25 01:19 -52.73888 -71.34377 15199 ft 373 kts 308°
2026-04-25 01:19 -52.72051 -71.37441 16089 ft 379 kts 309°
2026-04-25 01:19 -52.70112 -71.40454 17007 ft 386 kts 310°
2026-04-25 01:19 -52.68101 -71.43446 17904 ft 393 kts 310°
2026-04-25 01:20 -52.66041 -71.46472 18695 ft 399 kts 310°
2026-04-25 01:20 -52.63960 -71.49524 19478 ft 403 kts 310°
2026-04-25 01:20 -52.61858 -71.52612 20280 ft 407 kts 310°
2026-04-25 01:20 -52.59743 -71.55730 21054 ft 411 kts 310°
2026-04-25 01:21 -52.57600 -71.58897 21797 ft 416 kts 309°
2026-04-25 01:21 -52.55437 -71.62097 22479 ft 421 kts 309°
2026-04-25 01:21 -52.53250 -71.65332 23183 ft 426 kts 310°
2026-04-25 01:21 -52.51061 -71.68565 23800 ft 430 kts 310°
2026-04-25 01:22 -52.48822 -71.71866 24382 ft 434 kts 310°
2026-04-25 01:22 -52.46564 -71.75190 24980 ft 438 kts 310°
2026-04-25 01:22 -52.44283 -71.78544 25551 ft 443 kts 310°
2026-04-25 01:22 -52.41976 -71.81929 26098 ft 447 kts 310°
2026-04-25 01:23 -52.39645 -71.85346 26615 ft 451 kts 310°
2026-04-25 01:23 -52.37295 -71.88784 27143 ft 455 kts 309°
2026-04-25 01:23 -52.34927 -71.92246 27629 ft 459 kts 310°
2026-04-25 01:23 -52.32533 -71.95740 28065 ft 463 kts 310°
2026-04-25 01:24 -52.30119 -71.99258 28532 ft 467 kts 310°
2026-04-25 01:24 -52.27682 -72.02803 28979 ft 471 kts 310°
2026-04-25 01:24 -52.25223 -72.06374 29399 ft 474 kts 310°
2026-04-25 01:24 -52.22749 -72.09962 29787 ft 477 kts 310°
2026-04-25 01:25 -52.20264 -72.13562 30162 ft 479 kts 310°
2026-04-25 01:25 -52.17773 -72.17169 30599 ft 479 kts 310°
2026-04-25 01:25 -52.15277 -72.20777 31041 ft 478 kts 310°
2026-04-25 01:25 -52.12791 -72.24368 31461 ft 478 kts 310°
2026-04-25 01:26 -52.10301 -72.27961 31860 ft 479 kts 310°
2026-04-25 01:26 -52.07836 -72.31515 32261 ft 479 kts 310°
2026-04-25 01:26 -52.05339 -72.35108 32667 ft 479 kts 310°
2026-04-25 01:26 -52.02839 -72.38700 33058 ft 480 kts 310°
2026-04-25 01:27 -52.00336 -72.42291 33444 ft 480 kts 310°
2026-04-25 01:27 -51.97835 -72.45873 33825 ft 480 kts 310°
2026-04-25 01:27 -51.95327 -72.49458 34128 ft 480 kts 310°
2026-04-25 01:28 -51.90308 -72.56620 34695 ft 480 kts 311°
2026-04-25 01:28 -51.87799 -72.60192 34999 ft 480 kts 311°
2026-04-25 01:28 -51.85286 -72.63757 35278 ft 481 kts 312°
2026-04-25 01:28 -51.82645 -72.67130 35533 ft 487 kts 318°
2026-04-25 01:29 -51.79767 -72.70099 35747 ft 494 kts 322°
2026-04-25 01:29 -51.76789 -72.72923 35796 ft 498 kts 323°
2026-04-25 01:29 -51.70815 -72.78529 35812 ft 494 kts 323°
2026-04-25 01:30 -51.64926 -72.84106 35828 ft 490 kts 323°
2026-04-25 01:30 -51.59055 -72.89709 35825 ft 489 kts 323°
2026-04-25 01:31 -51.53242 -72.95255 35833 ft 489 kts 323°
2026-04-25 01:31 -51.48318 -72.99924 35836 ft 491 kts 323°
2026-04-25 01:32 -51.41440 -73.06433 35842 ft 496 kts 323°
2026-04-25 01:32 -51.35474 -73.12056 35835 ft 498 kts 323°
2026-04-25 01:33 -51.29506 -73.17666 35827 ft 497 kts 323°
2026-04-25 01:33 -51.23543 -73.23249 35865 ft 497 kts 323°
2026-04-25 01:34 -51.17572 -73.28820 35886 ft 497 kts 323°
2026-04-25 01:34 -51.11637 -73.34342 35880 ft 497 kts 323°
2026-04-25 01:35 -51.05673 -73.39874 35889 ft 496 kts 323°
2026-04-25 01:35 -50.99706 -73.45395 35912 ft 496 kts 323°
2026-04-25 01:36 -50.93735 -73.50906 35901 ft 496 kts 323°
2026-04-25 01:36 -50.87766 -73.56396 35899 ft 497 kts 323°
2026-04-25 01:37 -50.81775 -73.61891 35915 ft 497 kts 323°
2026-04-25 01:37 -50.76791 -73.66448 35931 ft 498 kts 323°
2026-04-25 01:38 -50.69811 -73.72812 35931 ft 499 kts 323°
2026-04-25 01:38 -50.63805 -73.78271 35921 ft 498 kts 323°
2026-04-25 01:39 -50.58768 -73.82835 35940 ft 498 kts 323°
2026-04-25 01:39 -50.52766 -73.88263 35951 ft 498 kts 323°
2026-04-25 01:40 -50.46799 -73.93640 35964 ft 497 kts 323°
2026-04-25 01:40 -50.40785 -73.99004 35958 ft 498 kts 326°
2026-04-25 01:41 -50.37539 -74.01042 35944 ft 508 kts 338°
2026-04-25 01:41 -50.34041 -74.02137 35982 ft 517 kts 348°
2026-04-25 01:41 -50.30419 -74.02295 35948 ft 525 kts 359°
2026-04-25 01:41 -50.26778 -74.01783 35990 ft 525 kts
2026-04-25 01:42 -50.19499 -74.00613 35965 ft 527 kts
2026-04-25 01:42 -50.12229 -73.99535 35978 ft 528 kts
2026-04-25 01:43 -50.04893 -73.98547 35966 ft 529 kts
2026-04-25 01:43 -49.97551 -73.97592 35992 ft 530 kts
2026-04-25 01:44 -49.90199 -73.96633 35998 ft 530 kts
2026-04-25 01:44 -49.82834 -73.95668 36002 ft 532 kts
2026-04-25 01:45 -49.75483 -73.94704 35967 ft 528 kts
2026-04-25 01:45 -49.68183 -73.93747 36006 ft 525 kts
2026-04-25 01:46 -49.60908 -73.92802 36017 ft 524 kts
2026-04-25 01:46 -49.53654 -73.91862 36015 ft 522 kts
2026-04-25 01:47 -49.46412 -73.90926 36004 ft 522 kts
2026-04-25 01:47 -49.39155 -73.89993 36013 ft 524 kts
2026-04-25 01:48 -49.31929 -73.89063 36026 ft 525 kts
2026-04-25 01:48 -49.24631 -73.88128 36012 ft 528 kts
2026-04-25 01:49 -49.17301 -73.87192 36038 ft 529 kts
2026-04-25 01:49 -49.09959 -73.86257 36054 ft 529 kts
2026-04-25 01:50 -49.02638 -73.85321 36030 ft 527 kts
2026-04-25 01:50 -48.95341 -73.84394 36064 ft 526 kts
2026-04-25 01:51 -48.88044 -73.83473 36064 ft 526 kts
2026-04-25 01:51 -48.80799 -73.82561 36050 ft 526 kts
2026-04-25 01:52 -48.73501 -73.81644 36073 ft 527 kts
2026-04-25 01:52 -48.66192 -73.80727 36070 ft 527 kts
2026-04-25 01:53 -48.58873 -73.79813 36056 ft 528 kts
2026-04-25 01:53 -48.51555 -73.78901 36098 ft 528 kts
2026-04-25 01:54 -48.44229 -73.77990 36080 ft 528 kts
2026-04-25 01:54 -48.36906 -73.77082 36043 ft 527 kts
2026-04-25 01:55 -48.29619 -73.76180 36088 ft 523 kts
2026-04-25 01:55 -48.22369 -73.75288 36074 ft 521 kts
2026-04-25 01:56 -48.15193 -73.74411 36082 ft 519 kts 360°
2026-04-25 01:56 -48.07983 -73.73541 36095 ft 521 kts 360°
2026-04-25 01:57 -47.97086 -73.72225 36109 ft 525 kts 360°
2026-04-25 01:58 -47.89776 -73.71341 36089 ft 527 kts 359°
2026-04-25 01:58 -47.82507 -73.70464 36101 ft 527 kts 360°
2026-04-25 01:59 -47.75191 -73.69584 36096 ft 526 kts 360°
2026-04-25 01:59 -47.67899 -73.68711 36119 ft 525 kts 360°
2026-04-25 02:00 -47.60613 -73.67841 36099 ft 524 kts 359°
2026-04-25 02:00 -47.53358 -73.66977 36133 ft 522 kts 359°
2026-04-25 02:01 -47.46117 -73.66118 36113 ft 522 kts 359°
2026-04-25 02:01 -47.38874 -73.65262 36125 ft 522 kts 359°
2026-04-25 02:02 -47.31631 -73.64407 36141 ft 522 kts 359°
2026-04-25 02:02 -47.24435 -73.63560 36119 ft 522 kts 359°
2026-04-25 02:03 -47.17188 -73.62709 36153 ft 523 kts 359°
2026-04-25 02:03 -47.09934 -73.61860 36165 ft 523 kts 359°
2026-04-25 02:04 -47.02672 -73.61011 36151 ft 524 kts 359°
2026-04-25 02:04 -46.95401 -73.60296 36175 ft 523 kts 357°
2026-04-25 02:05 -46.88137 -73.60006 36190 ft 522 kts 355°
2026-04-25 02:05 -46.80870 -73.59771 36174 ft 522 kts 356°
2026-04-25 02:06 -46.73607 -73.59471 36199 ft 522 kts 356°
2026-04-25 02:06 -46.66341 -73.59132 36216 ft 523 kts 356°
2026-04-25 02:07 -46.59072 -73.58787 36186 ft 523 kts 356°
2026-04-25 02:07 -46.51807 -73.58445 36208 ft 522 kts 356°
2026-04-25 02:08 -46.44520 -73.58109 36196 ft 522 kts 356°
2026-04-25 02:08 -46.37311 -73.57775 36190 ft 521 kts 356°
2026-04-25 02:09 -46.30064 -73.57442 36202 ft 520 kts 356°
2026-04-25 02:09 -46.22832 -73.57109 36203 ft 520 kts 356°
2026-04-25 02:10 -46.15604 -73.56778 36196 ft 519 kts 356°
2026-04-25 02:10 -46.08376 -73.56449 36221 ft 519 kts 356°
2026-04-25 02:11 -46.01140 -73.56121 36228 ft 521 kts 356°
2026-04-25 02:11 -45.93889 -73.55792 36211 ft 522 kts 356°
2026-04-25 02:12 -45.86613 -73.55462 36221 ft 523 kts 356°
2026-04-25 02:12 -45.79348 -73.55132 36231 ft 522 kts 356°
2026-04-25 02:13 -45.72085 -73.54804 36229 ft 522 kts 356°
2026-04-25 02:13 -45.64829 -73.54478 36241 ft 521 kts 356°
2026-04-25 02:14 -45.57579 -73.54153 36244 ft 521 kts 356°
2026-04-25 02:14 -45.50375 -73.53831 36247 ft 521 kts 356°
2026-04-25 02:15 -45.43123 -73.53507 36249 ft 521 kts 356°
2026-04-25 02:15 -45.35876 -73.53185 36234 ft 521 kts 356°
2026-04-25 02:16 -45.28626 -73.52863 36261 ft 521 kts 357°
2026-04-25 02:16 -45.21382 -73.52542 36257 ft 521 kts 357°
2026-04-25 02:17 -45.14138 -73.52138 36246 ft 522 kts
2026-04-25 02:17 -45.06907 -73.51245 36268 ft 522 kts
2026-04-25 02:18 -44.99715 -73.50291 36271 ft 522 kts
2026-04-25 02:18 -44.92474 -73.49357 36264 ft 523 kts
2026-04-25 02:19 -44.85221 -73.48447 36282 ft 523 kts
2026-04-25 02:19 -44.77971 -73.47548 36286 ft 523 kts
2026-04-25 02:20 -44.70723 -73.46650 36274 ft 523 kts
2026-04-25 02:20 -44.63473 -73.45751 36287 ft 523 kts
2026-04-25 02:21 -44.56272 -73.44860 36293 ft 523 kts
2026-04-25 02:21 -44.49028 -73.43966 36287 ft 522 kts
2026-04-25 02:22 -44.41787 -73.43075 36294 ft 523 kts
2026-04-25 02:22 -44.34538 -73.42186 36282 ft 523 kts
2026-04-25 02:23 -44.27287 -73.41298 36308 ft 523 kts
2026-04-25 02:23 -44.20028 -73.40412 36320 ft 523 kts
2026-04-25 02:24 -44.12778 -73.39529 36296 ft 523 kts
2026-04-25 02:24 -44.05532 -73.38648 36308 ft 522 kts
2026-04-25 02:25 -43.98293 -73.37770 36313 ft 522 kts
2026-04-25 02:25 -43.91061 -73.36896 36310 ft 521 kts
2026-04-25 02:26 -43.83877 -73.36029 36320 ft 521 kts
2026-04-25 02:26 -43.76639 -73.35159 36318 ft 522 kts
2026-04-25 02:27 -43.69402 -73.34290 36318 ft 522 kts
2026-04-25 02:27 -43.62165 -73.33423 36322 ft 522 kts
2026-04-25 02:28 -43.54918 -73.32557 36316 ft 523 kts
2026-04-25 02:28 -43.48900 -73.31840 36326 ft 522 kts
2026-04-25 02:29 -43.41656 -73.30978 36324 ft 522 kts
2026-04-25 02:29 -43.34408 -73.30118 36324 ft 522 kts
2026-04-25 02:30 -43.27175 -73.29262 36337 ft 521 kts
2026-04-25 02:30 -43.19948 -73.28407 36331 ft 521 kts
2026-04-25 02:31 -43.12740 -73.27564 36336 ft 519 kts
2026-04-25 02:31 -43.05535 -73.26794 36339 ft 518 kts
2026-04-25 02:32 -42.98346 -73.26050 36316 ft 518 kts
2026-04-25 02:32 -42.91212 -73.25304 36343 ft 517 kts
2026-04-25 02:33 -42.84039 -73.24548 36341 ft 517 kts
2026-04-25 02:33 -42.76863 -73.23792 36330 ft 517 kts
2026-04-25 02:34 -42.69694 -73.23039 36339 ft 516 kts
2026-04-25 02:34 -42.62537 -73.22290 36348 ft 516 kts
2026-04-25 02:35 -42.55374 -73.21542 36335 ft 516 kts
2026-04-25 02:35 -42.48218 -73.20796 36356 ft 515 kts
2026-04-25 02:36 -42.41065 -73.20049 36354 ft 515 kts
2026-04-25 02:36 -42.33915 -73.19258 36351 ft 515 kts
2026-04-25 02:37 -42.26820 -73.18453 36355 ft 514 kts
2026-04-25 02:37 -42.19689 -73.17652 36355 ft 514 kts
2026-04-25 02:38 -42.12557 -73.16858 36354 ft 513 kts
2026-04-25 02:38 -42.05442 -73.16068 36356 ft 513 kts
2026-04-25 02:39 -41.98324 -73.15281 36354 ft 513 kts
2026-04-25 02:39 -41.91254 -73.14500 36356 ft 513 kts
2026-04-25 02:40 -41.84137 -73.13715 36353 ft 513 kts
2026-04-25 02:40 -41.77027 -73.12932 36333 ft 513 kts
2026-04-25 02:41 -41.69919 -73.12152 36348 ft 512 kts
2026-04-25 02:41 -41.62820 -73.11374 36345 ft 512 kts
2026-04-25 02:42 -41.55715 -73.10597 36326 ft 512 kts
2026-04-25 02:42 -41.48619 -73.09823 36331 ft 511 kts
2026-04-25 02:43 -41.41586 -73.09000 36346 ft 512 kts
2026-04-25 02:43 -41.34538 -73.07682 36327 ft 512 kts
2026-04-25 02:44 -41.27475 -73.06302 36339 ft 512 kts
2026-04-25 02:44 -41.20418 -73.04966 36341 ft 512 kts
2026-04-25 02:45 -41.13372 -73.03650 36319 ft 512 kts
2026-04-25 02:45 -41.06320 -73.02335 36333 ft 511 kts
2026-04-25 02:46 -40.99268 -73.01035 36340 ft 511 kts
2026-04-25 02:46 -40.92214 -72.99739 36305 ft 511 kts
2026-04-25 02:47 -40.85171 -72.98445 36333 ft 511 kts
2026-04-25 02:47 -40.78130 -72.97153 36349 ft 511 kts
2026-04-25 02:48 -40.71135 -72.95873 36331 ft 511 kts
2026-04-25 02:48 -40.64095 -72.94586 36349 ft 510 kts
2026-04-25 02:49 -40.57070 -72.93305 36346 ft 509 kts
2026-04-25 02:49 -40.50055 -72.92029 36341 ft 507 kts
2026-04-25 02:50 -40.43074 -72.90762 36341 ft 506 kts
2026-04-25 02:50 -40.36103 -72.89499 36347 ft 505 kts
2026-04-25 02:51 -40.29137 -72.88285 36349 ft 505 kts
2026-04-25 02:51 -40.22214 -72.87176 36342 ft 504 kts
2026-04-25 02:52 -40.15239 -72.86064 36348 ft 504 kts
2026-04-25 02:52 -40.08271 -72.84941 36351 ft 505 kts
2026-04-25 02:53 -40.01295 -72.83811 36350 ft 505 kts
2026-04-25 02:53 -39.94306 -72.82682 36356 ft 506 kts
2026-04-25 02:54 -39.87324 -72.81557 36341 ft 506 kts
2026-04-25 02:54 -39.80377 -72.80441 36352 ft 506 kts
2026-04-25 02:55 -39.73384 -72.79318 36338 ft 506 kts
2026-04-25 02:55 -39.66401 -72.78132 36358 ft 507 kts
2026-04-25 02:56 -39.59414 -72.76824 36331 ft 507 kts
2026-04-25 02:56 -39.52431 -72.75528 36342 ft 507 kts
2026-04-25 02:57 -39.45441 -72.74254 36349 ft 507 kts
2026-04-25 02:57 -39.38456 -72.72984 36324 ft 507 kts
2026-04-25 02:58 -39.31481 -72.71725 36359 ft 506 kts
2026-04-25 02:58 -39.24634 -72.70495 36346 ft 506 kts
2026-04-25 02:59 -39.17657 -72.69241 36346 ft 506 kts
2026-04-25 02:59 -39.10725 -72.67997 36331 ft 505 kts
2026-04-25 03:00 -39.03772 -72.66752 36321 ft 505 kts
2026-04-25 03:00 -38.96807 -72.65508 36322 ft 505 kts
2026-04-25 03:01 -38.89852 -72.64222 36316 ft 507 kts
2026-04-25 03:01 -38.82934 -72.62274 36325 ft 509 kts
2026-04-25 03:02 -38.76026 -72.60237 36336 ft 510 kts
2026-04-25 03:02 -38.69102 -72.58237 36319 ft 509 kts
2026-04-25 03:03 -38.62181 -72.56265 36350 ft 509 kts
2026-04-25 03:03 -38.55266 -72.54298 36359 ft 509 kts
2026-04-25 03:04 -38.48347 -72.52333 36350 ft 509 kts
2026-04-25 03:04 -38.41435 -72.50382 36349 ft 509 kts
2026-04-25 03:05 -38.31092 -72.47472 36351 ft 510 kts
2026-04-25 03:05 -38.24159 -72.45525 36315 ft 510 kts
2026-04-25 03:06 -38.17239 -72.43580 36348 ft 509 kts
2026-04-25 03:06 -38.10309 -72.41636 36342 ft 509 kts
2026-04-25 03:07 -38.03388 -72.39696 36347 ft 509 kts
2026-04-25 03:07 -37.96468 -72.37761 36331 ft 508 kts
2026-04-25 03:08 -37.89560 -72.35834 36328 ft 508 kts
2026-04-25 03:08 -37.82650 -72.33911 36328 ft 508 kts
2026-04-25 03:09 -37.75737 -72.31989 36286 ft 508 kts
2026-04-25 03:09 -37.68831 -72.30072 36319 ft 508 kts
2026-04-25 03:10 -37.61919 -72.28135 36321 ft 509 kts
2026-04-25 03:10 -37.55064 -72.26051 36321 ft 511 kts
2026-04-25 03:11 -37.48161 -72.23907 36306 ft 511 kts
2026-04-25 03:11 -37.41255 -72.21786 36310 ft 511 kts
2026-04-25 03:12 -37.34348 -72.19686 36308 ft 511 kts
2026-04-25 03:12 -37.27446 -72.17597 36270 ft 510 kts
2026-04-25 03:13 -37.20548 -72.15512 36303 ft 510 kts
2026-04-25 03:13 -37.13647 -72.13431 36307 ft 510 kts
2026-04-25 03:14 -37.06740 -72.11350 36301 ft 511 kts
2026-04-25 03:14 -36.99827 -72.09270 36293 ft 511 kts
2026-04-25 03:15 -36.92909 -72.07194 36293 ft 512 kts
2026-04-25 03:15 -36.85978 -72.05118 36296 ft 512 kts
2026-04-25 03:16 -36.80211 -72.03393 36242 ft 513 kts
2026-04-25 03:16 -36.73277 -72.01322 36296 ft 512 kts
2026-04-25 03:17 -36.66339 -71.99255 36293 ft 513 kts
2026-04-25 03:17 -36.59391 -71.97188 36286 ft 513 kts
2026-04-25 03:18 -36.52446 -71.95125 36269 ft 513 kts
2026-04-25 03:18 -36.45512 -71.93070 36279 ft 512 kts
2026-04-25 03:19 -36.38573 -71.91017 36281 ft 512 kts
2026-04-25 03:19 -36.31635 -71.88969 36241 ft 512 kts
2026-04-25 03:20 -36.24706 -71.86925 36270 ft 511 kts
2026-04-25 03:20 -36.17785 -71.84890 36283 ft 511 kts
2026-04-25 03:21 -36.10861 -71.82857 36281 ft 511 kts
2026-04-25 03:21 -36.03937 -71.80827 36251 ft 511 kts
2026-04-25 03:22 -35.97021 -71.78803 36269 ft 511 kts
2026-04-25 03:22 -35.90103 -71.76783 36271 ft 511 kts
2026-04-25 03:23 -35.83182 -71.74765 36270 ft 511 kts
2026-04-25 03:23 -35.76259 -71.72750 36261 ft 511 kts
2026-04-25 03:24 -35.69340 -71.70739 36272 ft 511 kts
2026-04-25 03:24 -35.62463 -71.68745 36267 ft 511 kts
2026-04-25 03:25 -35.55533 -71.66738 36230 ft 512 kts
2026-04-25 03:25 -35.48607 -71.64736 36261 ft 511 kts
2026-04-25 03:26 -35.41683 -71.62736 36273 ft 511 kts
2026-04-25 03:26 -35.34753 -71.60735 36261 ft 512 kts
2026-04-25 03:27 -35.27823 -71.58735 36260 ft 511 kts
2026-04-25 03:27 -35.20899 -71.56742 36263 ft 511 kts
2026-04-25 03:28 -35.13975 -71.54753 36263 ft 511 kts
2026-04-25 03:28 -35.07057 -71.52766 36246 ft 511 kts
2026-04-25 03:29 -35.00159 -71.50783 36246 ft 509 kts
2026-04-25 03:29 -34.93261 -71.48819 36259 ft 510 kts
2026-04-25 03:30 -34.86347 -71.46848 36263 ft 511 kts
2026-04-25 03:30 -34.79421 -71.44872 36197 ft 511 kts
2026-04-25 03:31 -34.72509 -71.42904 36247 ft 510 kts
2026-04-25 03:31 -34.65605 -71.40942 36245 ft 510 kts
2026-04-25 03:32 -34.58799 -71.38138 36255 ft 523 kts 14°
2026-04-25 03:32 -34.52110 -71.34596 36230 ft 524 kts 15°
2026-04-25 03:33 -34.45417 -71.31111 36240 ft 523 kts 14°
2026-04-25 03:33 -34.38695 -71.27778 36240 ft 522 kts 13°
2026-04-25 03:34 -34.31972 -71.24502 36242 ft 521 kts 13°
2026-04-25 03:34 -34.25290 -71.21246 36202 ft 521 kts 13°
2026-04-25 03:35 -34.18574 -71.17968 36222 ft 520 kts 13°
2026-04-25 03:35 -34.11869 -71.14696 36228 ft 519 kts 13°
2026-04-25 03:36 -34.05169 -71.11434 36228 ft 520 kts 13°
2026-04-25 03:36 -33.98459 -71.08172 36200 ft 520 kts 13°
2026-04-25 03:37 -33.91751 -71.04919 36218 ft 519 kts 13°
2026-04-25 03:37 -33.85046 -71.01674 36207 ft 520 kts 13°
2026-04-25 03:38 -33.78345 -70.98432 36231 ft 519 kts 13°
2026-04-25 03:38 -33.71678 -70.95210 35885 ft 510 kts 13°
2026-04-25 03:39 -33.68407 -70.93629 35399 ft 505 kts 13°
2026-04-25 03:39 -33.65131 -70.92055 34570 ft 509 kts 13°
2026-04-25 03:39 -33.61862 -70.90484 33277 ft 502 kts 13°
2026-04-25 03:39 -33.58612 -70.88922 31221 ft 506 kts 14°
2026-04-25 03:40 -33.55330 -70.87246 29086 ft 518 kts 20°
2026-04-25 03:40 -33.52211 -70.85079 27376 ft 516 kts 27°
2026-04-25 03:40 -33.49268 -70.82705 25987 ft 503 kts 28°
2026-04-25 03:40 -33.46401 -70.80430 24708 ft 487 kts 27°
2026-04-25 03:41 -33.43607 -70.78335 23429 ft 473 kts 26°
2026-04-25 03:41 -33.40839 -70.76306 22000 ft 460 kts 27°
2026-04-25 03:41 -33.38152 -70.74329 20720 ft 447 kts 27°
2026-04-25 03:41 -33.35527 -70.72553 20042 ft 417 kts 20°
2026-04-25 03:42 -33.32924 -70.71446 19796 ft 378 kts
2026-04-25 03:42 -33.30454 -70.70954 19553 ft 345 kts
2026-04-25 03:42 -33.28135 -70.70688 19128 ft 326 kts 359°
2026-04-25 03:42 -33.25904 -70.70489 18526 ft 317 kts 359°
2026-04-25 03:43 -33.23727 -70.70325 17745 ft 311 kts 359°
2026-04-25 03:43 -33.21578 -70.70186 16946 ft 307 kts 359°
2026-04-25 03:43 -33.19462 -70.70071 16167 ft 302 kts 359°
2026-04-25 03:43 -33.17381 -70.69976 15449 ft 296 kts 359°
2026-04-25 03:44 -33.15331 -70.69900 14744 ft 292 kts 359°
2026-04-25 03:44 -33.13317 -70.69847 14064 ft 287 kts 359°
2026-04-25 03:44 -33.11335 -70.69841 13288 ft 283 kts 355°
2026-04-25 03:44 -33.09384 -70.69988 12516 ft 279 kts 354°
2026-04-25 03:45 -33.07459 -70.70187 11769 ft 276 kts 353°
2026-04-25 03:45 -33.05569 -70.70396 11035 ft 271 kts 353°
2026-04-25 03:45 -33.03679 -70.70619 10194 ft 272 kts 353°
2026-04-25 03:45 -33.01840 -70.70850 9567 ft 264 kts 353°
2026-04-25 03:46 -33.00056 -70.71083 9259 ft 244 kts 353°
2026-04-25 03:46 -32.98455 -70.71321 8982 ft 227 kts 347°
2026-04-25 03:46 -32.97145 -70.72156 8731 ft 202 kts 311°
2026-04-25 03:46 -32.96440 -70.73607 8810 ft 203 kts 295°
2026-04-25 03:47 -32.96086 -70.75227 8614 ft 203 kts 267°
2026-04-25 03:47 -32.96550 -70.76785 8577 ft 202 kts 242°
2026-04-25 03:47 -32.97386 -70.78048 8294 ft 190 kts 219°
2026-04-25 03:47 -32.98469 -70.78870 8095 ft 180 kts 210°
2026-04-25 03:48 -32.99562 -70.79538 7875 ft 172 kts 207°
2026-04-25 03:48 -33.00604 -70.80150 7679 ft 162 kts 207°
2026-04-25 03:48 -33.01622 -70.80716 7482 ft 161 kts 204°
2026-04-25 03:48 -33.02663 -70.81230 7335 ft 163 kts 203°
2026-04-25 03:49 -33.03724 -70.81725 7142 ft 165 kts 200°
2026-04-25 03:49 -33.04848 -70.81941 6952 ft 164 kts 179°
2026-04-25 03:49 -33.05990 -70.81918 6770 ft 165 kts 180°
2026-04-25 03:49 -33.07118 -70.81910 6571 ft 159 kts 179°
2026-04-25 03:50 -33.08208 -70.81880 6373 ft 155 kts 178°
2026-04-25 03:50 -33.09283 -70.81838 6208 ft 155 kts 178°
2026-04-25 03:50 -33.10369 -70.81789 6032 ft 156 kts 177°
2026-04-25 03:50 -33.11444 -70.81737 5862 ft 157 kts 177°
2026-04-25 03:51 -33.12542 -70.81680 5677 ft 157 kts 177°
2026-04-25 03:51 -33.13613 -70.81624 5490 ft 151 kts 177°
2026-04-25 03:51 -33.14652 -70.81569 5318 ft 149 kts 177°
2026-04-25 03:51 -33.15691 -70.81515 5238 ft 150 kts 177°
2026-04-25 03:52 -33.16738 -70.81460 5158 ft 151 kts 177°
2026-04-25 03:52 -33.17785 -70.81405 5068 ft 149 kts 176°
2026-04-25 03:52 -33.18820 -70.81349 5023 ft 149 kts 177°
2026-04-25 03:52 -33.19861 -70.81293 4972 ft 151 kts 176°
2026-04-25 03:53 -33.20924 -70.81238 4762 ft 152 kts 177°
2026-04-25 03:53 -33.21970 -70.81182 4555 ft 149 kts 177°
2026-04-25 03:53 -33.22996 -70.81128 4355 ft 148 kts 176°
2026-04-25 03:53 -33.24025 -70.81073 4181 ft 148 kts 176°
2026-04-25 03:54 -33.25059 -70.81019 3982 ft 149 kts 176°
2026-04-25 03:54 -33.26089 -70.80964 3786 ft 148 kts 176°
2026-04-25 03:54 -33.27114 -70.80909 3593 ft 147 kts 176°
2026-04-25 03:54 -33.28138 -70.80855 3407 ft 147 kts 176°
2026-04-25 03:55 -33.29159 -70.80801 3203 ft 146 kts 176°
2026-04-25 03:55 -33.30174 -70.80746 2990 ft 146 kts 177°
2026-04-25 03:55 -33.31186 -70.80692 2806 ft 145 kts 177°
2026-04-25 03:55 -33.32192 -70.80640 2597 ft 145 kts 176°
2026-04-25 03:56 -33.33197 -70.80587 2396 ft 144 kts 176°
2026-04-25 03:56 -33.34197 -70.80533 2201 ft 143 kts 176°
2026-04-25 03:56 -33.35192 -70.80481 2001 ft 142 kts 177°
2026-04-25 03:56 -33.36177 -70.80429 1807 ft 141 kts 177°
2026-04-25 03:57 -33.37160 -70.80376 1636 ft 142 kts 177°
2026-04-25 03:57 -33.38112 -70.80323 1576 ft 125 kts 178°
2026-04-25 03:57 -33.38753 -70.80290 1580 ft 59 kts 177°
2026-04-25 03:57 -33.39019 -70.80275 1579 ft 35 kts 177°
2026-04-25 03:58 -33.39253 -70.80264 1577 ft 33 kts 177°
2026-04-25 03:58 -33.39479 -70.80250 1576 ft 32 kts 178°
2026-04-25 03:58 -33.39694 -70.80240 1576 ft 30 kts 177°
2026-04-25 03:58 -33.39877 -70.80217 1577 ft 19 kts 159°
2026-04-25 03:59 -33.39952 -70.80170 1577 ft 5 kts 149°
2026-04-25 03:59 -33.39989 -70.80143 1576 ft 7 kts 149°
2026-04-25 03:59 -33.40038 -70.80108 1575 ft 9 kts 149°
2026-04-25 03:59 -33.40094 -70.80059 1573 ft 11 kts 142°
2026-04-25 04:00 -33.40152 -70.79990 1571 ft 12 kts 117°
2026-04-25 04:00 -33.40162 -70.79912 1570 ft 6 kts 92°
2026-04-25 04:00 -33.40162 -70.79854 1570 ft 7 kts 89°
2026-04-25 04:00 -33.40139 -70.79805 1569 ft 7 kts 19°
2026-04-25 04:01 -33.40093 -70.79799 1569 ft 7 kts
2026-04-25 04:01 -33.40079 -70.79799 1569 ft 0 kts